Time,TemperatureF,DewpointF,PressureIn,WindDirection,WindDirectionDegrees,WindSpeedMPH,WindSpeedGustMPH,Humidity,HourlyPrecipIn,Conditions,Clouds,dailyrainin,SoftwareType,DateUTC
2013-04-02 00:00:00,49.5,43.9,30.40,South,180,0.0,0.0,81,0.00,,---,0.00,VWS V14.01,2013-04-02 07:00:00,
2013-04-02 00:05:00,49.5,43.9,30.40,South,180,0.0,0.0,81,0.00,,---,0.00,VWS V14.01,2013-04-02 07:05:00,
2013-04-02 00:10:00,49.5,43.9,30.40,South,180,0.0,0.0,81,0.00,,---,0.00,VWS V14.01,2013-04-02 07:10:00,
2013-04-02 00:15:00,49.5,44.2,30.40,South,180,0.0,0.0,82,0.00,,---,0.00,VWS V14.01,2013-04-02 07:15:00,
2013-04-02 00:20:00,49.5,44.2,30.40,South,180,0.4,0.4,82,0.00,,---,0.00,VWS V14.01,2013-04-02 07:20:00,
2013-04-02 00:25:00,49.3,44.0,30.40,South,180,0.0,0.0,82,0.00,,---,0.00,VWS V14.01,2013-04-02 07:25:00,
2013-04-02 00:29:00,49.3,44.0,30.41,South,180,0.0,0.0,82,0.00,,---,0.00,VWS V14.01,2013-04-02 07:29:00,
2013-04-02 00:34:00,49.5,44.2,30.41,South,180,0.0,0.0,82,0.00,,---,0.00,VWS V14.01,2013-04-02 07:34:00,
2013-04-02 00:39:00,49.5,44.2,30.41,South,180,0.0,0.0,82,0.00,,---,0.00,VWS V14.01,2013-04-02 07:39:00,
2013-04-02 00:44:00,49.7,44.4,30.41,South,180,0.0,0.0,82,0.00,,---,0.00,VWS V14.01,2013-04-02 07:44:00,
2013-04-02 00:49:00,49.7,44.4,30.41,South,180,0.0,0.0,82,0.00,,---,0.00,VWS V14.01,2013-04-02 07:49:00,
2013-04-02 00:54:00,49.7,44.4,30.41,South,180,0.0,0.0,82,0.00,,---,0.00,VWS V14.01,2013-04-02 07:54:00,
2013-04-02 00:59:00,49.7,44.4,30.41,South,180,0.0,0.0,82,0.00,,---,0.00,VWS V14.01,2013-04-02 07:59:00,
2013-04-02 01:04:00,49.7,44.4,30.42,South,180,0.0,0.0,82,0.00,,---,0.00,VWS V14.01,2013-04-02 08:04:00,
2013-04-02 01:09:00,49.7,44.4,30.42,South,180,0.0,0.0,82,0.00,,---,0.00,VWS V14.01,2013-04-02 08:09:00,
2013-04-02 01:14:00,49.7,44.4,30.41,South,180,0.0,0.0,82,0.00,,---,0.00,VWS V14.01,2013-04-02 08:14:00,
2013-04-02 01:19:00,49.7,44.4,30.41,South,180,0.0,0.0,82,0.00,,---,0.00,VWS V14.01,2013-04-02 08:19:00,
2013-04-02 01:24:00,49.9,44.6,30.42,South,180,0.0,0.0,82,0.00,,---,0.00,VWS V14.01,2013-04-02 08:24:00,
2013-04-02 01:29:00,49.9,45.0,30.42,South,180,0.0,0.0,83,0.00,,---,0.00,VWS V14.01,2013-04-02 08:29:00,
2013-04-02 01:34:00,49.7,44.8,30.41,South,180,0.0,0.0,83,0.00,,---,0.00,VWS V14.01,2013-04-02 08:34:00,
2013-04-02 01:39:00,49.7,44.8,30.42,South,180,0.0,0.0,83,0.00,,---,0.00,VWS V14.01,2013-04-02 08:39:00,
2013-04-02 01:44:00,49.7,44.8,30.42,South,180,0.0,0.0,83,0.00,,---,0.00,VWS V14.01,2013-04-02 08:44:00,
2013-04-02 01:49:00,49.7,44.8,30.42,South,180,0.0,0.0,83,0.00,,---,0.00,VWS V14.01,2013-04-02 08:49:00,
2013-04-02 01:54:00,49.7,44.8,30.42,South,180,0.0,0.0,83,0.00,,---,0.00,VWS V14.01,2013-04-02 08:54:00,
2013-04-02 01:59:00,49.7,45.1,30.42,South,180,0.0,0.0,84,0.00,,---,0.00,VWS V14.01,2013-04-02 08:59:00,
2013-04-02 02:04:00,49.7,45.1,30.42,South,180,0.0,0.0,84,0.00,,---,0.00,VWS V14.01,2013-04-02 09:04:00,
2013-04-02 02:09:00,49.9,45.0,30.42,South,180,0.0,0.0,83,0.00,,---,0.00,VWS V14.01,2013-04-02 09:09:00,
2013-04-02 02:14:00,50.0,45.4,30.42,South,180,0.0,0.0,84,0.00,,---,0.00,VWS V14.01,2013-04-02 09:14:00,
2013-04-02 02:19:00,50.0,45.0,30.42,South,180,0.0,0.0,83,0.00,,---,0.00,VWS V14.01,2013-04-02 09:19:00,
2013-04-02 02:24:00,50.0,45.4,30.42,South,180,0.0,0.0,84,0.00,,---,0.00,VWS V14.01,2013-04-02 09:24:00,
2013-04-02 02:29:00,50.0,45.0,30.42,South,180,0.0,0.0,83,0.00,,---,0.00,VWS V14.01,2013-04-02 09:29:00,
2013-04-02 02:34:00,50.0,45.4,30.41,South,180,0.0,0.0,84,0.00,,---,0.00,VWS V14.01,2013-04-02 09:34:00,
2013-04-02 02:39:00,50.0,45.4,30.41,South,180,0.0,0.0,84,0.00,,---,0.00,VWS V14.01,2013-04-02 09:39:00,
2013-04-02 02:44:00,50.0,45.4,30.41,South,180,0.0,0.0,84,0.00,,---,0.00,VWS V14.01,2013-04-02 09:44:00,
2013-04-02 02:49:00,50.0,45.4,30.41,South,180,0.0,0.0,84,0.00,,---,0.00,VWS V14.01,2013-04-02 09:49:00,
2013-04-02 02:54:00,50.0,45.4,30.41,South,180,0.4,0.4,84,0.00,,---,0.00,VWS V14.01,2013-04-02 09:54:00,
2013-04-02 02:59:00,50.2,45.6,30.41,South,180,0.0,0.0,84,0.00,,---,0.00,VWS V14.01,2013-04-02 09:59:00,
2013-04-02 03:04:00,50.0,45.4,30.41,South,180,0.0,0.0,84,0.00,,---,0.00,VWS V14.01,2013-04-02 10:04:00,
2013-04-02 03:09:00,50.0,45.4,30.41,South,180,0.0,0.0,84,0.00,,---,0.00,VWS V14.01,2013-04-02 10:09:00,
2013-04-02 03:14:00,50.0,45.4,30.41,South,180,0.0,0.0,84,0.00,,---,0.00,VWS V14.01,2013-04-02 10:14:00,
2013-04-02 03:19:00,50.0,45.4,30.41,South,180,0.0,0.0,84,0.00,,---,0.00,VWS V14.01,2013-04-02 10:19:00,
2013-04-02 03:24:00,50.0,45.4,30.41,South,180,0.0,0.0,84,0.00,,---,0.00,VWS V14.01,2013-04-02 10:24:00,
2013-04-02 03:29:00,50.0,45.7,30.41,South,180,0.0,0.0,85,0.00,,---,0.00,VWS V14.01,2013-04-02 10:29:00,
2013-04-02 03:34:00,50.0,45.4,30.41,South,180,0.0,0.0,84,0.00,,---,0.00,VWS V14.01,2013-04-02 10:34:00,
2013-04-02 03:39:00,50.0,45.4,30.40,South,180,0.0,0.0,84,0.00,,---,0.00,VWS V14.01,2013-04-02 10:39:00,
2013-04-02 03:44:00,50.0,45.4,30.40,South,180,0.0,0.0,84,0.00,,---,0.00,VWS V14.01,2013-04-02 10:44:00,
2013-04-02 03:49:00,50.0,45.4,30.41,South,180,0.4,0.4,84,0.00,,---,0.00,VWS V14.01,2013-04-02 10:49:00,
2013-04-02 03:54:00,50.0,45.4,30.41,South,180,0.0,0.0,84,0.00,,---,0.00,VWS V14.01,2013-04-02 10:54:00,
2013-04-02 03:59:00,50.0,45.7,30.41,South,180,0.0,0.0,85,0.00,,---,0.00,VWS V14.01,2013-04-02 10:59:00,
2013-04-02 04:04:00,50.0,45.7,30.41,South,180,0.0,0.0,85,0.00,,---,0.00,VWS V14.01,2013-04-02 11:04:00,
2013-04-02 04:09:00,50.0,45.7,30.41,South,180,0.0,0.0,85,0.00,,---,0.00,VWS V14.01,2013-04-02 11:09:00,
2013-04-02 04:14:00,50.0,45.7,30.41,South,180,0.0,0.0,85,0.00,,---,0.00,VWS V14.01,2013-04-02 11:14:00,
2013-04-02 04:19:00,50.0,45.7,30.41,South,180,0.0,0.0,85,0.00,,---,0.00,VWS V14.01,2013-04-02 11:19:00,
2013-04-02 04:24:00,50.0,45.7,30.41,South,180,0.0,0.0,85,0.00,,---,0.00,VWS V14.01,2013-04-02 11:24:00,
2013-04-02 04:29:00,50.0,45.7,30.41,South,180,0.0,0.0,85,0.00,,---,0.00,VWS V14.01,2013-04-02 11:29:00,
2013-04-02 04:34:00,50.0,45.7,30.41,South,180,0.0,0.0,85,0.00,,---,0.00,VWS V14.01,2013-04-02 11:34:00,
2013-04-02 04:39:00,50.0,45.7,30.41,South,180,0.0,0.0,85,0.00,,---,0.00,VWS V14.01,2013-04-02 11:39:00,
2013-04-02 04:44:00,50.0,45.7,30.41,South,180,0.0,0.0,85,0.00,,---,0.00,VWS V14.01,2013-04-02 11:44:00,
2013-04-02 04:49:00,50.0,46.0,30.41,South,180,0.0,0.0,86,0.00,,---,0.00,VWS V14.01,2013-04-02 11:49:00,
2013-04-02 04:54:00,50.0,46.0,30.41,South,180,0.0,0.0,86,0.00,,---,0.00,VWS V14.01,2013-04-02 11:54:00,
2013-04-02 04:59:00,50.0,46.0,30.41,South,180,0.0,0.0,86,0.00,,---,0.00,VWS V14.01,2013-04-02 11:59:00,
2013-04-02 05:04:00,50.0,46.0,30.42,South,180,0.0,0.0,86,0.00,,---,0.00,VWS V14.01,2013-04-02 12:04:00,
2013-04-02 05:09:00,50.0,46.0,30.41,South,180,0.0,0.0,86,0.00,,---,0.00,VWS V14.01,2013-04-02 12:09:00,
2013-04-02 05:14:00,50.0,46.0,30.41,South,180,0.0,0.0,86,0.00,,---,0.00,VWS V14.01,2013-04-02 12:14:00,
2013-04-02 05:19:00,50.0,45.7,30.41,South,180,0.0,0.0,85,0.00,,---,0.00,VWS V14.01,2013-04-02 12:19:00,
2013-04-02 05:24:00,50.0,45.7,30.41,South,180,0.0,0.0,85,0.00,,---,0.00,VWS V14.01,2013-04-02 12:24:00,
2013-04-02 05:29:00,50.2,45.9,30.41,South,180,0.0,0.0,85,0.00,,---,0.00,VWS V14.01,2013-04-02 12:29:00,
2013-04-02 05:34:00,50.0,46.0,30.42,South,180,0.0,0.0,86,0.00,,---,0.00,VWS V14.01,2013-04-02 12:34:00,
2013-04-02 05:39:00,50.0,46.0,30.41,South,180,0.0,0.0,86,0.00,,---,0.00,VWS V14.01,2013-04-02 12:39:00,
2013-04-02 05:44:00,50.0,46.0,30.41,South,180,0.0,0.0,86,0.00,,---,0.00,VWS V14.01,2013-04-02 12:44:00,
2013-04-02 05:49:00,50.0,46.0,30.41,South,180,0.0,0.0,86,0.00,,---,0.00,VWS V14.01,2013-04-02 12:49:00,
2013-04-02 05:54:00,50.0,46.0,30.41,South,180,0.0,0.0,86,0.00,,---,0.00,VWS V14.01,2013-04-02 12:54:00,
2013-04-02 05:59:00,49.9,45.9,30.41,South,180,0.0,0.0,86,0.00,,---,0.00,VWS V14.01,2013-04-02 12:59:00,
2013-04-02 06:04:00,49.9,45.9,30.42,South,180,0.0,0.0,86,0.00,,---,0.00,VWS V14.01,2013-04-02 13:04:00,
2013-04-02 06:09:00,49.9,45.9,30.42,South,180,0.0,0.0,86,0.00,,---,0.00,VWS V14.01,2013-04-02 13:09:00,
2013-04-02 06:14:00,49.9,45.9,30.42,South,180,0.0,0.0,86,0.00,,---,0.00,VWS V14.01,2013-04-02 13:14:00,
2013-04-02 06:19:00,49.7,45.7,30.42,South,180,0.0,0.0,86,0.00,,---,0.00,VWS V14.01,2013-04-02 13:19:00,
2013-04-02 06:24:00,49.9,46.2,30.42,South,180,0.0,0.0,87,0.00,,---,0.00,VWS V14.01,2013-04-02 13:24:00,
2013-04-02 06:29:00,49.9,45.9,30.42,South,180,0.0,0.0,86,0.00,,---,0.00,VWS V14.01,2013-04-02 13:29:00,
2013-04-02 06:34:00,49.9,46.2,30.42,South,180,0.0,0.0,87,0.00,,---,0.00,VWS V14.01,2013-04-02 13:34:00,
2013-04-02 06:39:00,49.9,45.9,30.42,South,180,0.0,0.4,86,0.00,,---,0.00,VWS V14.01,2013-04-02 13:39:00,
2013-04-02 06:44:00,49.9,45.9,30.42,South,180,0.0,0.0,86,0.00,,---,0.00,VWS V14.01,2013-04-02 13:44:00,
2013-04-02 06:49:00,49.9,45.9,30.42,South,180,0.0,0.0,86,0.00,,---,0.00,VWS V14.01,2013-04-02 13:49:00,
2013-04-02 06:54:00,49.9,45.9,30.42,South,180,0.0,0.0,86,0.00,,---,0.00,VWS V14.01,2013-04-02 13:54:00,
2013-04-02 06:59:00,49.9,45.9,30.42,South,180,0.0,0.0,86,0.00,,---,0.00,VWS V14.01,2013-04-02 13:59:00,
2013-04-02 07:04:00,49.7,46.0,30.42,South,180,0.0,0.0,87,0.00,,---,0.00,VWS V14.01,2013-04-02 14:04:00,
2013-04-02 07:09:00,49.7,46.0,30.42,South,180,0.0,0.0,87,0.00,,---,0.00,VWS V14.01,2013-04-02 14:09:00,
2013-04-02 07:14:00,49.7,45.7,30.42,South,180,0.0,0.0,86,0.00,,---,0.00,VWS V14.01,2013-04-02 14:14:00,
2013-04-02 07:19:00,49.7,45.7,30.42,South,180,0.0,0.0,86,0.00,,---,0.00,VWS V14.01,2013-04-02 14:19:00,
2013-04-02 07:24:00,49.7,45.7,30.42,South,180,0.0,0.0,86,0.00,,---,0.00,VWS V14.01,2013-04-02 14:24:00,
2013-04-02 07:29:00,49.9,45.9,30.42,South,180,0.0,0.0,86,0.00,,---,0.00,VWS V14.01,2013-04-02 14:29:00,
2013-04-02 07:34:00,49.7,46.0,30.42,South,180,0.0,0.0,87,0.00,,---,0.00,VWS V14.01,2013-04-02 14:34:00,
2013-04-02 07:39:00,49.7,46.0,30.42,South,180,0.0,0.0,87,0.00,,---,0.00,VWS V14.01,2013-04-02 14:39:00,
2013-04-02 07:44:00,49.7,46.0,30.42,South,180,0.0,0.0,87,0.00,,---,0.00,VWS V14.01,2013-04-02 14:44:00,
2013-04-02 07:49:00,49.7,45.7,30.42,South,180,0.0,0.0,86,0.00,,---,0.00,VWS V14.01,2013-04-02 14:49:00,
2013-04-02 07:54:00,49.7,46.0,30.42,South,180,0.0,0.0,87,0.00,,---,0.00,VWS V14.01,2013-04-02 14:54:00,
2013-04-02 07:59:00,49.9,46.2,30.42,South,180,0.0,0.0,87,0.00,,---,0.00,VWS V14.01,2013-04-02 14:59:00,
2013-04-02 08:04:00,49.9,45.9,30.42,South,180,0.0,0.0,86,0.00,,---,0.00,VWS V14.01,2013-04-02 15:04:00,
2013-04-02 08:09:00,50.0,46.0,30.42,South,180,0.0,0.0,86,0.00,,---,0.00,VWS V14.01,2013-04-02 15:09:00,
2013-04-02 08:14:00,50.0,46.0,30.42,South,180,0.0,0.0,86,0.00,,---,0.00,VWS V14.01,2013-04-02 15:14:00,
2013-04-02 08:19:00,50.0,46.0,30.42,South,180,0.4,0.4,86,0.00,,---,0.00,VWS V14.01,2013-04-02 15:19:00,
2013-04-02 08:24:00,50.0,46.0,30.42,South,180,0.7,0.9,86,0.00,,---,0.00,VWS V14.01,2013-04-02 15:24:00,
2013-04-02 08:29:00,50.2,46.5,30.42,South,180,0.0,0.0,87,0.00,,---,0.00,VWS V14.01,2013-04-02 15:29:00,
2013-04-02 08:34:00,50.2,46.5,30.42,South,180,0.9,1.3,87,0.00,,---,0.00,VWS V14.01,2013-04-02 15:34:00,
2013-04-02 08:39:00,50.2,46.2,30.42,South,180,0.7,0.7,86,0.00,,---,0.00,VWS V14.01,2013-04-02 15:39:00,
2013-04-02 08:44:00,50.4,46.4,30.41,South,180,0.4,0.7,86,0.00,,---,0.00,VWS V14.01,2013-04-02 15:44:00,
2013-04-02 08:49:00,50.4,46.4,30.42,South,180,1.3,1.3,86,0.00,,---,0.00,VWS V14.01,2013-04-02 15:49:00,
2013-04-02 08:54:00,50.8,46.8,30.42,South,180,1.1,1.1,86,0.00,,---,0.00,VWS V14.01,2013-04-02 15:54:00,
2013-04-02 08:59:00,50.8,47.1,30.42,South,180,0.4,0.4,87,0.00,,---,0.00,VWS V14.01,2013-04-02 15:59:00,
2013-04-02 09:04:00,51.1,47.1,30.42,South,180,0.0,0.0,86,0.00,,---,0.00,VWS V14.01,2013-04-02 16:04:00,
2013-04-02 09:09:00,51.1,47.1,30.41,South,180,1.1,1.1,86,0.00,,---,0.00,VWS V14.01,2013-04-02 16:09:00,
2013-04-02 09:14:00,51.1,47.1,30.42,South,180,0.0,0.2,86,0.00,,---,0.00,VWS V14.01,2013-04-02 16:14:00,
2013-04-02 09:19:00,51.1,47.1,30.41,South,180,0.0,0.0,86,0.00,,---,0.00,VWS V14.01,2013-04-02 16:19:00,
2013-04-02 09:24:00,51.1,47.1,30.41,South,180,0.4,0.4,86,0.00,,---,0.00,VWS V14.01,2013-04-02 16:24:00,
2013-04-02 09:29:00,51.3,47.3,30.41,South,180,0.0,0.0,86,0.00,,---,0.00,VWS V14.01,2013-04-02 16:29:00,
2013-04-02 09:34:00,51.5,47.5,30.42,South,180,0.7,0.9,86,0.00,,---,0.00,VWS V14.01,2013-04-02 16:34:00,
2013-04-02 09:39:00,51.5,47.5,30.42,South,180,1.3,1.3,86,0.00,,---,0.00,VWS V14.01,2013-04-02 16:39:00,
2013-04-02 09:45:00,51.5,47.5,30.42,South,180,1.8,1.8,86,0.00,,---,0.00,VWS V14.01,2013-04-02 16:45:00,
2013-04-02 09:50:00,51.5,47.5,30.42,South,180,0.0,0.0,86,0.00,,---,0.00,VWS V14.01,2013-04-02 16:50:00,
2013-04-02 09:55:00,51.7,47.7,30.42,South,180,0.4,0.4,86,0.00,,---,0.00,VWS V14.01,2013-04-02 16:55:00,
2013-04-02 10:00:00,51.8,47.8,30.42,South,180,0.9,0.9,86,0.00,,---,0.00,VWS V14.01,2013-04-02 17:00:00,
2013-04-02 10:05:00,52.2,48.2,30.42,South,180,0.0,0.0,86,0.00,,---,0.00,VWS V14.01,2013-04-02 17:05:00,
2013-04-02 10:10:00,52.4,48.0,30.42,South,180,0.7,0.7,85,0.00,,---,0.00,VWS V14.01,2013-04-02 17:10:00,
2013-04-02 10:15:00,52.2,47.5,30.42,South,180,0.0,0.0,84,0.00,,---,0.00,VWS V14.01,2013-04-02 17:15:00,
2013-04-02 10:20:00,52.2,47.5,30.42,South,180,0.9,0.9,84,0.00,,---,0.00,VWS V14.01,2013-04-02 17:20:00,
2013-04-02 10:25:00,52.2,47.5,30.42,South,180,0.4,0.4,84,0.00,,---,0.00,VWS V14.01,2013-04-02 17:25:00,
2013-04-02 10:30:00,52.2,47.5,30.42,South,180,0.0,0.0,84,0.00,,---,0.00,VWS V14.01,2013-04-02 17:30:00,
2013-04-02 10:35:00,52.6,47.9,30.42,South,180,0.0,0.0,84,0.00,,---,0.00,VWS V14.01,2013-04-02 17:35:00,
2013-04-02 10:40:00,52.7,48.0,30.42,South,180,0.0,0.0,84,0.00,,---,0.00,VWS V14.01,2013-04-02 17:40:00,
2013-04-02 10:45:00,53.1,48.1,30.42,South,180,0.0,0.0,83,0.00,,---,0.00,VWS V14.01,2013-04-02 17:45:00,
2013-04-02 10:50:00,53.6,48.6,30.41,South,180,0.0,0.0,83,0.00,,---,0.00,VWS V14.01,2013-04-02 17:50:00,
2013-04-02 10:55:00,54.4,49.3,30.41,South,180,1.1,1.1,83,0.00,,---,0.00,VWS V14.01,2013-04-02 17:55:00,
2013-04-02 11:00:00,55.1,49.7,30.42,South,180,2.2,2.2,82,0.00,,---,0.00,VWS V14.01,2013-04-02 18:00:00,
2013-04-02 11:05:00,55.3,48.9,30.42,South,180,0.0,0.4,79,0.00,,---,0.00,VWS V14.01,2013-04-02 18:05:00,
2013-04-02 11:10:00,55.4,49.0,30.42,South,180,0.0,0.0,79,0.00,,---,0.00,VWS V14.01,2013-04-02 18:10:00,
2013-04-02 11:15:00,55.3,48.9,30.42,South,180,1.6,1.6,79,0.00,,---,0.00,VWS V14.01,2013-04-02 18:15:00,
2013-04-02 11:20:00,55.8,49.7,30.42,South,180,0.0,1.6,80,0.00,,---,0.00,VWS V14.01,2013-04-02 18:20:00,
2013-04-02 11:25:00,55.8,48.7,30.42,South,180,0.4,0.4,77,0.00,,---,0.00,VWS V14.01,2013-04-02 18:25:00,
2013-04-02 11:30:00,55.6,49.2,30.42,South,180,1.6,1.8,79,0.00,,---,0.00,VWS V14.01,2013-04-02 18:30:00,
2013-04-02 11:35:00,55.8,49.4,30.42,South,180,0.9,1.8,79,0.00,,---,0.00,VWS V14.01,2013-04-02 18:35:00,
2013-04-02 11:40:00,56.2,49.8,30.42,South,180,1.1,1.1,79,0.00,,---,0.00,VWS V14.01,2013-04-02 18:40:00,
2013-04-02 11:45:00,56.2,49.4,30.42,NE,45,4.3,4.3,78,0.00,,---,0.00,VWS V14.01,2013-04-02 18:45:00,
2013-04-02 11:50:00,56.2,49.4,30.42,NNE,22,3.1,3.1,78,0.00,,---,0.00,VWS V14.01,2013-04-02 18:50:00,
2013-04-02 11:55:00,55.8,49.0,30.42,North,0,2.5,2.5,78,0.00,,---,0.00,VWS V14.01,2013-04-02 18:55:00,
2013-04-02 12:00:00,56.0,49.2,30.42,South,180,0.4,0.4,78,0.00,,---,0.00,VWS V14.01,2013-04-02 19:00:00,
2013-04-02 12:05:00,55.8,49.0,30.42,South,180,0.2,0.2,78,0.00,,---,0.00,VWS V14.01,2013-04-02 19:05:00,
2013-04-02 12:10:00,55.6,48.9,30.42,South,180,0.4,0.4,78,0.00,,---,0.00,VWS V14.01,2013-04-02 19:10:00,
2013-04-02 12:15:00,55.8,48.7,30.42,South,180,1.1,1.1,77,0.00,,---,0.00,VWS V14.01,2013-04-02 19:15:00,
2013-04-02 12:20:00,55.8,49.0,30.42,South,180,1.1,1.1,78,0.00,,---,0.00,VWS V14.01,2013-04-02 19:20:00,
2013-04-02 12:25:00,56.2,49.4,30.42,South,180,1.6,1.6,78,0.00,,---,0.00,VWS V14.01,2013-04-02 19:25:00,
2013-04-02 12:30:00,56.9,49.1,30.41,South,180,1.8,1.8,75,0.00,,---,0.00,VWS V14.01,2013-04-02 19:30:00,
2013-04-02 12:35:00,57.1,48.5,30.42,South,180,2.0,2.0,73,0.00,,---,0.00,VWS V14.01,2013-04-02 19:35:00,
2013-04-02 12:40:00,57.2,48.6,30.42,South,180,0.4,0.4,73,0.00,,---,0.00,VWS V14.01,2013-04-02 19:40:00,
2013-04-02 12:45:00,57.2,48.3,30.42,South,180,2.2,2.2,72,0.00,,---,0.00,VWS V14.01,2013-04-02 19:45:00,
2013-04-02 12:50:00,57.1,48.2,30.42,South,180,4.7,4.7,72,0.00,,---,0.00,VWS V14.01,2013-04-02 19:50:00,
2013-04-02 12:55:00,56.9,48.3,30.42,South,180,1.1,1.1,73,0.00,,---,0.00,VWS V14.01,2013-04-02 19:55:00,
2013-04-02 13:00:00,57.1,48.2,30.42,South,180,3.4,3.4,72,0.00,,---,0.00,VWS V14.01,2013-04-02 20:00:00,
2013-04-02 13:05:00,57.1,47.8,30.42,South,180,3.4,4.0,71,0.00,,---,0.00,VWS V14.01,2013-04-02 20:05:00,
2013-04-02 13:10:00,57.6,48.7,30.42,South,180,2.7,2.7,72,0.00,,---,0.00,VWS V14.01,2013-04-02 20:10:00,
2013-04-02 13:15:00,58.0,48.7,30.42,South,180,1.8,2.5,71,0.00,,---,0.00,VWS V14.01,2013-04-02 20:15:00,
2013-04-02 13:20:00,58.1,48.4,30.41,South,180,2.2,2.2,70,0.00,,---,0.00,VWS V14.01,2013-04-02 20:20:00,
2013-04-02 13:25:00,58.5,48.8,30.41,South,180,2.0,2.0,70,0.00,,---,0.00,VWS V14.01,2013-04-02 20:25:00,
2013-04-02 13:30:00,59.0,49.2,30.41,South,180,1.1,2.5,70,0.00,,---,0.00,VWS V14.01,2013-04-02 20:30:00,
2013-04-02 13:35:00,59.9,49.7,30.41,South,180,2.0,2.0,69,0.00,,---,0.00,VWS V14.01,2013-04-02 20:35:00,
2013-04-02 13:40:00,61.0,50.4,30.41,South,180,1.3,2.5,68,0.00,,---,0.00,VWS V14.01,2013-04-02 20:40:00,
2013-04-02 13:45:00,61.0,49.2,30.41,South,180,2.0,2.0,65,0.00,,---,0.00,VWS V14.01,2013-04-02 20:45:00,
2013-04-02 13:50:00,60.5,49.1,30.41,South,180,2.5,6.5,66,0.00,,---,0.00,VWS V14.01,2013-04-02 20:50:00,
2013-04-02 13:55:00,60.1,49.1,30.41,South,180,2.0,2.0,67,0.00,,---,0.00,VWS V14.01,2013-04-02 20:55:00,
2013-04-02 14:00:00,59.6,48.2,30.42,South,180,3.4,3.4,66,0.00,,---,0.00,VWS V14.01,2013-04-02 21:00:00,
2013-04-02 14:05:00,59.0,47.7,30.42,South,180,1.6,2.9,66,0.00,,---,0.00,VWS V14.01,2013-04-02 21:05:00,
2013-04-02 14:10:00,58.5,48.4,30.42,South,180,4.5,4.5,69,0.00,,---,0.00,VWS V14.01,2013-04-02 21:10:00,
2013-04-02 14:15:00,58.1,48.0,30.43,South,180,3.1,3.1,69,0.00,,---,0.00,VWS V14.01,2013-04-02 21:15:00,
2013-04-02 14:20:00,57.6,47.5,30.43,South,180,2.0,6.9,69,0.00,,---,0.00,VWS V14.01,2013-04-02 21:20:00,
2013-04-02 14:25:00,57.4,47.7,30.43,South,180,3.1,3.1,70,0.00,,---,0.00,VWS V14.01,2013-04-02 21:25:00,
2013-04-02 14:30:00,57.2,47.9,30.43,South,180,2.2,2.2,71,0.00,,---,0.00,VWS V14.01,2013-04-02 21:30:00,
2013-04-02 14:35:00,57.2,47.9,30.43,South,180,1.3,3.1,71,0.00,,---,0.00,VWS V14.01,2013-04-02 21:35:00,
2013-04-02 14:40:00,57.2,48.3,30.43,South,180,2.9,3.1,72,0.00,,---,0.00,VWS V14.01,2013-04-02 21:40:00,
2013-04-02 14:45:00,57.6,48.7,30.43,South,180,2.5,2.5,72,0.00,,---,0.00,VWS V14.01,2013-04-02 21:45:00,
2013-04-02 14:50:00,58.0,48.7,30.43,South,180,1.3,2.0,71,0.00,,---,0.00,VWS V14.01,2013-04-02 21:50:00,
2013-04-02 14:55:00,58.3,49.0,30.43,South,180,1.1,1.1,71,0.00,,---,0.00,VWS V14.01,2013-04-02 21:55:00,
2013-04-02 15:00:00,58.3,48.6,30.42,South,180,0.7,0.7,70,0.00,,---,0.00,VWS V14.01,2013-04-02 22:00:00,
2013-04-02 15:05:00,58.0,48.3,30.43,South,180,2.2,2.2,70,0.00,,---,0.00,VWS V14.01,2013-04-02 22:05:00,
2013-04-02 15:10:00,57.6,47.9,30.43,South,180,1.3,3.8,70,0.00,,---,0.00,VWS V14.01,2013-04-02 22:10:00,
2013-04-02 15:15:00,57.6,48.3,30.42,South,180,3.4,3.4,71,0.00,,---,0.00,VWS V14.01,2013-04-02 22:15:00,
2013-04-02 15:20:00,57.6,47.9,30.42,South,180,2.0,2.0,70,0.00,,---,0.00,VWS V14.01,2013-04-02 22:20:00,
2013-04-02 15:25:00,58.0,47.9,30.42,South,180,1.1,1.1,69,0.00,,---,0.00,VWS V14.01,2013-04-02 22:25:00,
2013-04-02 15:30:00,58.0,48.3,30.42,South,180,1.1,1.6,70,0.00,,---,0.00,VWS V14.01,2013-04-02 22:30:00,
2013-04-02 15:35:00,58.3,48.2,30.42,South,180,1.3,1.8,69,0.00,,---,0.00,VWS V14.01,2013-04-02 22:35:00,
2013-04-02 15:40:00,58.5,48.0,30.41,South,180,0.7,0.7,68,0.00,,---,0.00,VWS V14.01,2013-04-02 22:40:00,
2013-04-02 15:45:00,58.0,47.9,30.41,South,180,0.9,0.9,69,0.00,,---,0.00,VWS V14.01,2013-04-02 22:45:00,
2013-04-02 15:50:00,57.6,47.9,30.41,South,180,0.4,0.4,70,0.00,,---,0.00,VWS V14.01,2013-04-02 22:50:00,
2013-04-02 15:55:00,57.2,47.9,30.41,South,180,0.7,0.7,71,0.00,,---,0.00,VWS V14.01,2013-04-02 22:55:00,
2013-04-02 16:01:00,56.9,47.6,30.41,South,180,0.0,0.7,71,0.00,,---,0.00,VWS V14.01,2013-04-02 23:01:00,
2013-04-02 16:06:00,57.1,48.2,30.41,South,180,0.4,0.4,72,0.00,,---,0.00,VWS V14.01,2013-04-02 23:06:00,
2013-04-02 16:11:00,57.2,47.9,30.41,South,180,0.9,0.9,71,0.00,,---,0.00,VWS V14.01,2013-04-02 23:11:00,
2013-04-02 16:16:00,56.9,47.6,30.41,South,180,1.1,1.1,71,0.00,,---,0.00,VWS V14.01,2013-04-02 23:16:00,
2013-04-02 16:22:00,56.9,48.0,30.41,South,180,0.0,0.0,72,0.00,,---,0.00,VWS V14.01,2013-04-02 23:22:00,
2013-04-02 16:27:00,57.1,48.2,30.41,South,180,0.0,0.0,72,0.00,,---,0.00,VWS V14.01,2013-04-02 23:27:00,
2013-04-02 16:32:00,57.2,48.3,30.41,South,180,0.0,0.0,72,0.00,,---,0.00,VWS V14.01,2013-04-02 23:32:00,
2013-04-02 16:37:00,57.1,48.2,30.41,South,180,1.8,1.8,72,0.00,,---,0.00,VWS V14.01,2013-04-02 23:37:00,
2013-04-02 16:42:00,57.2,48.6,30.41,South,180,0.4,0.4,73,0.00,,---,0.00,VWS V14.01,2013-04-02 23:42:00,
2013-04-02 16:47:00,57.2,48.6,30.41,South,180,0.4,1.3,73,0.00,,---,0.00,VWS V14.01,2013-04-02 23:47:00,
2013-04-02 16:52:00,57.2,48.3,30.40,South,180,0.4,0.4,72,0.00,,---,0.00,VWS V14.01,2013-04-02 23:52:00,
2013-04-02 16:57:00,57.2,48.3,30.40,South,180,0.0,0.0,72,0.00,,---,0.00,VWS V14.01,2013-04-02 23:57:00,
2013-04-02 17:02:00,57.1,48.5,30.40,South,180,0.9,0.9,73,0.00,,---,0.00,VWS V14.01,2013-04-03 00:02:00,
2013-04-02 17:07:00,56.9,48.0,30.40,South,180,0.4,0.9,72,0.00,,---,0.00,VWS V14.01,2013-04-03 00:07:00,
2013-04-02 17:12:00,56.7,48.2,30.40,South,180,0.0,0.0,73,0.00,,---,0.00,VWS V14.01,2013-04-03 00:12:00,
2013-04-02 17:17:00,56.7,48.2,30.40,South,180,0.4,1.1,73,0.00,,---,0.00,VWS V14.01,2013-04-03 00:17:00,
2013-04-02 17:22:00,56.9,48.3,30.40,South,180,1.3,1.3,73,0.00,,---,0.00,VWS V14.01,2013-04-03 00:22:00,
2013-04-02 17:27:00,56.7,48.2,30.40,South,180,1.1,1.1,73,0.00,,---,0.00,VWS V14.01,2013-04-03 00:27:00,
2013-04-02 17:32:00,56.5,48.0,30.39,South,180,0.0,0.0,73,0.00,,---,0.00,VWS V14.01,2013-04-03 00:32:00,
2013-04-02 17:37:00,56.5,48.0,30.39,South,180,0.4,0.4,73,0.00,,---,0.00,VWS V14.01,2013-04-03 00:37:00,
2013-04-02 17:42:00,56.5,48.0,30.39,South,180,1.1,1.1,73,0.00,,---,0.00,VWS V14.01,2013-04-03 00:42:00,
2013-04-02 17:47:00,56.5,48.0,30.39,South,180,0.0,0.0,73,0.00,,---,0.00,VWS V14.01,2013-04-03 00:47:00,
2013-04-02 17:52:00,56.5,48.3,30.39,South,180,0.4,0.4,74,0.00,,---,0.00,VWS V14.01,2013-04-03 00:52:00,
2013-04-02 17:57:00,56.5,48.0,30.39,South,180,0.0,0.0,73,0.00,,---,0.00,VWS V14.01,2013-04-03 00:57:00,
2013-04-02 18:02:00,56.5,48.0,30.39,South,180,0.0,0.0,73,0.00,,---,0.00,VWS V14.01,2013-04-03 01:02:00,
2013-04-02 18:07:00,56.3,48.1,30.39,South,180,0.4,0.4,74,0.00,,---,0.00,VWS V14.01,2013-04-03 01:07:00,
2013-04-02 18:12:00,56.2,48.0,30.39,South,180,1.1,1.1,74,0.00,,---,0.00,VWS V14.01,2013-04-03 01:12:00,
2013-04-02 18:17:00,56.0,47.8,30.39,South,180,0.4,0.4,74,0.00,,---,0.00,VWS V14.01,2013-04-03 01:17:00,
2013-04-02 18:22:00,55.8,48.0,30.39,South,180,0.0,0.0,75,0.00,,---,0.00,VWS V14.01,2013-04-03 01:22:00,
2013-04-02 18:27:00,55.8,48.0,30.39,South,180,0.0,0.0,75,0.00,,---,0.00,VWS V14.01,2013-04-03 01:27:00,
2013-04-02 18:32:00,55.8,48.0,30.39,South,180,0.4,0.7,75,0.00,,---,0.00,VWS V14.01,2013-04-03 01:32:00,
2013-04-02 18:37:00,55.6,47.8,30.39,South,180,0.2,0.2,75,0.00,,---,0.00,VWS V14.01,2013-04-03 01:37:00,
2013-04-02 18:42:00,55.6,47.8,30.39,South,180,0.2,0.2,75,0.00,,---,0.00,VWS V14.01,2013-04-03 01:42:00,
2013-04-02 18:47:00,55.4,48.0,30.39,South,180,0.0,0.0,76,0.00,,---,0.00,VWS V14.01,2013-04-03 01:47:00,
2013-04-02 18:52:00,55.4,48.0,30.39,South,180,0.0,0.0,76,0.00,,---,0.00,VWS V14.01,2013-04-03 01:52:00,
2013-04-02 18:57:00,55.4,48.0,30.39,South,180,0.0,0.0,76,0.00,,---,0.00,VWS V14.01,2013-04-03 01:57:00,
2013-04-02 19:02:00,55.3,47.9,30.38,South,180,0.0,0.4,76,0.00,,---,0.00,VWS V14.01,2013-04-03 02:02:00,
2013-04-02 19:07:00,55.1,47.7,30.38,South,180,0.0,0.0,76,0.00,,---,0.00,VWS V14.01,2013-04-03 02:07:00,
2013-04-02 19:12:00,55.1,47.7,30.38,South,180,0.0,0.0,76,0.00,,---,0.00,VWS V14.01,2013-04-03 02:12:00,
2013-04-02 19:18:00,54.9,47.5,30.39,South,180,0.0,0.0,76,0.00,,---,0.00,VWS V14.01,2013-04-03 02:18:00,
2013-04-02 19:23:00,54.9,47.8,30.39,South,180,0.0,0.0,77,0.00,,---,0.00,VWS V14.01,2013-04-03 02:23:00,
2013-04-02 19:27:00,54.7,47.6,30.39,South,180,0.0,0.0,77,0.00,,---,0.00,VWS V14.01,2013-04-03 02:27:00,
2013-04-02 19:32:00,54.5,47.8,30.39,South,180,0.0,0.0,78,0.00,,---,0.00,VWS V14.01,2013-04-03 02:32:00,
2013-04-02 19:38:00,54.4,47.3,30.39,South,180,0.0,0.0,77,0.00,,---,0.00,VWS V14.01,2013-04-03 02:38:00,
2013-04-02 19:43:00,54.4,47.3,30.39,South,180,0.0,0.0,77,0.00,,---,0.00,VWS V14.01,2013-04-03 02:43:00,
2013-04-02 19:48:00,54.2,47.2,30.39,South,180,0.0,0.0,77,0.00,,---,0.00,VWS V14.01,2013-04-03 02:48:00,
2013-04-02 19:53:00,54.0,47.3,30.39,South,180,0.0,0.0,78,0.00,,---,0.00,VWS V14.01,2013-04-03 02:53:00,
2013-04-02 19:58:00,54.0,47.3,30.39,South,180,0.0,0.0,78,0.00,,---,0.00,VWS V14.01,2013-04-03 02:58:00,
2013-04-02 20:03:00,53.8,47.1,30.39,South,180,0.0,0.0,78,0.00,,---,0.00,VWS V14.01,2013-04-03 03:03:00,
2013-04-02 20:08:00,53.6,46.9,30.39,South,180,0.0,0.0,78,0.00,,---,0.00,VWS V14.01,2013-04-03 03:08:00,
2013-04-02 20:13:00,53.6,46.9,30.40,South,180,0.0,0.0,78,0.00,,---,0.00,VWS V14.01,2013-04-03 03:13:00,
2013-04-02 20:18:00,53.5,46.8,30.40,South,180,0.0,0.0,78,0.00,,---,0.00,VWS V14.01,2013-04-03 03:18:00,
2013-04-02 20:23:00,53.3,47.0,30.40,South,180,0.0,0.0,79,0.00,,---,0.00,VWS V14.01,2013-04-03 03:23:00,
2013-04-02 20:28:00,53.1,46.8,30.40,South,180,0.0,0.0,79,0.00,,---,0.00,VWS V14.01,2013-04-03 03:28:00,
2013-04-02 20:33:00,52.9,46.6,30.40,South,180,0.0,0.0,79,0.00,,---,0.00,VWS V14.01,2013-04-03 03:33:00,
2013-04-02 20:38:00,52.6,46.3,30.40,South,180,0.0,0.0,79,0.00,,---,0.00,VWS V14.01,2013-04-03 03:38:00,
2013-04-02 20:43:00,52.2,45.9,30.40,South,180,0.0,0.0,79,0.00,,---,0.00,VWS V14.01,2013-04-03 03:43:00,
2013-04-02 20:48:00,51.8,45.8,30.40,South,180,0.0,0.0,80,0.00,,---,0.00,VWS V14.01,2013-04-03 03:48:00,
2013-04-02 20:53:00,51.5,45.5,30.40,South,180,0.0,0.4,80,0.00,,---,0.00,VWS V14.01,2013-04-03 03:53:00,
2013-04-02 20:58:00,51.1,45.2,30.40,South,180,0.0,0.0,80,0.00,,---,0.00,VWS V14.01,2013-04-03 03:58:00,
2013-04-02 21:00:00,50.9,45.0,30.41,South,180,0.0,0.0,80,0.00,,---,0.00,VWS V14.01,2013-04-03 04:00:00,
2013-04-02 21:05:00,50.8,44.9,30.41,South,180,0.0,0.0,80,0.00,,---,0.00,VWS V14.01,2013-04-03 04:05:00,
2013-04-02 21:10:00,50.4,44.8,30.41,South,180,0.0,0.0,81,0.00,,---,0.00,VWS V14.01,2013-04-03 04:10:00,
2013-04-02 21:15:00,50.0,44.7,30.41,South,180,0.0,0.0,82,0.00,,---,0.00,VWS V14.01,2013-04-03 04:15:00,
2013-04-02 21:20:00,49.9,44.6,30.41,South,180,0.4,0.4,82,0.00,,---,0.00,VWS V14.01,2013-04-03 04:20:00,
2013-04-02 21:25:00,49.9,44.6,30.41,South,180,0.0,0.0,82,0.00,,---,0.00,VWS V14.01,2013-04-03 04:25:00,
2013-04-02 21:30:00,49.7,44.4,30.41,South,180,0.0,0.0,82,0.00,,---,0.00,VWS V14.01,2013-04-03 04:30:00,
2013-04-02 21:35:00,49.5,44.2,30.41,South,180,0.9,0.9,82,0.00,,---,0.00,VWS V14.01,2013-04-03 04:35:00,
2013-04-02 21:40:00,49.5,44.6,30.41,South,180,0.9,0.9,83,0.00,,---,0.00,VWS V14.01,2013-04-03 04:40:00,
2013-04-02 21:45:00,49.5,44.6,30.41,South,180,0.0,0.0,83,0.00,,---,0.00,VWS V14.01,2013-04-03 04:45:00,
2013-04-02 21:50:00,49.5,44.6,30.41,South,180,0.0,0.0,83,0.00,,---,0.00,VWS V14.01,2013-04-03 04:50:00,
2013-04-02 21:55:00,49.5,44.6,30.41,South,180,0.0,0.0,83,0.00,,---,0.00,VWS V14.01,2013-04-03 04:55:00,
2013-04-02 22:00:00,49.5,44.9,30.41,South,180,0.0,0.0,84,0.00,,---,0.00,VWS V14.01,2013-04-03 05:00:00,
2013-04-02 22:05:00,49.5,44.9,30.41,South,180,0.0,0.0,84,0.00,,---,0.00,VWS V14.01,2013-04-03 05:05:00,
2013-04-02 22:10:00,49.5,44.9,30.41,South,180,0.0,0.0,84,0.00,,---,0.00,VWS V14.01,2013-04-03 05:10:00,
2013-04-02 22:15:00,49.5,44.9,30.41,South,180,0.0,0.0,84,0.00,,---,0.00,VWS V14.01,2013-04-03 05:15:00,
2013-04-02 22:20:00,49.5,44.6,30.41,South,180,0.0,0.0,83,0.00,,---,0.00,VWS V14.01,2013-04-03 05:20:00,
2013-04-02 22:25:00,49.5,44.9,30.42,South,180,0.0,0.0,84,0.00,,---,0.00,VWS V14.01,2013-04-03 05:25:00,
2013-04-02 22:30:00,49.5,44.6,30.42,South,180,0.0,0.0,83,0.00,,---,0.00,VWS V14.01,2013-04-03 05:30:00,
2013-04-02 22:35:00,49.5,44.6,30.42,South,180,0.0,0.0,83,0.00,,---,0.00,VWS V14.01,2013-04-03 05:35:00,
2013-04-02 22:40:00,49.5,44.6,30.42,South,180,0.0,0.0,83,0.00,,---,0.00,VWS V14.01,2013-04-03 05:40:00,
2013-04-02 22:45:00,49.5,44.6,30.42,South,180,1.1,1.1,83,0.00,,---,0.00,VWS V14.01,2013-04-03 05:45:00,
2013-04-02 22:50:00,49.5,44.6,30.42,South,180,0.0,0.0,83,0.00,,---,0.00,VWS V14.01,2013-04-03 05:50:00,
2013-04-02 22:55:00,49.5,44.6,30.41,South,180,0.4,0.4,83,0.00,,---,0.00,VWS V14.01,2013-04-03 05:55:00,
2013-04-02 23:00:00,49.5,44.6,30.42,South,180,0.0,0.0,83,0.00,,---,0.00,VWS V14.01,2013-04-03 06:00:00,
2013-04-02 23:05:00,49.7,45.1,30.41,South,180,0.7,1.1,84,0.00,,---,0.00,VWS V14.01,2013-04-03 06:05:00,
2013-04-02 23:10:00,49.7,45.1,30.41,South,180,0.2,0.7,84,0.00,,---,0.00,VWS V14.01,2013-04-03 06:10:00,
2013-04-02 23:15:00,49.7,45.1,30.41,South,180,0.2,0.2,84,0.00,,---,0.00,VWS V14.01,2013-04-03 06:15:00,
2013-04-02 23:20:00,49.7,45.1,30.41,South,180,0.4,0.4,84,0.00,,---,0.00,VWS V14.01,2013-04-03 06:20:00,
2013-04-02 23:25:00,49.7,45.4,30.41,South,180,0.0,0.0,85,0.00,,---,0.00,VWS V14.01,2013-04-03 06:25:00,
2013-04-02 23:30:00,49.7,45.4,30.42,South,180,0.0,0.0,85,0.00,,---,0.00,VWS V14.01,2013-04-03 06:30:00,
2013-04-02 23:35:00,49.9,45.6,30.42,South,180,0.0,0.0,85,0.00,,---,0.00,VWS V14.01,2013-04-03 06:35:00,
2013-04-02 23:40:00,49.9,45.6,30.42,South,180,0.0,0.0,85,0.00,,---,0.00,VWS V14.01,2013-04-03 06:40:00,
2013-04-02 23:45:00,49.7,45.4,30.41,South,180,0.0,0.0,85,0.00,,---,0.00,VWS V14.01,2013-04-03 06:45:00,
2013-04-02 23:50:00,49.9,45.6,30.42,South,180,0.0,0.0,85,0.00,,---,0.00,VWS V14.01,2013-04-03 06:50:00,
2013-04-02 23:55:00,49.9,45.6,30.41,South,180,0.0,0.0,85,0.00,,---,0.00,VWS V14.01,2013-04-03 06:55:00,